Tracking 26935 objects as of 5-Feb-2023
HD Live streaming from Space Station
objects crossing your sky now

INTELSAT 801

Track INTELSAT 801 now!
INTELSAT 801 is classified as:


NORAD ID: 24742
Int'l Code: 1997-009A
Perigee: 36,176.8 km
Apogee: 36,282.8 km
Inclination: 10.2 °
Period: 1,458.4 minutes
Semi major axis: 42600 km
RCS: 1.061 m2 (large)
Launch date: March 1, 1997
Source: International Telecommunications Satellite Organization (ITSO)
Launch site: FRENCH GUIANA (FRGUI)

64 C-band, 16 Ku-band; broadcasting, business services, direct-to-home TV broadcasting, telecommunications, VSAT networks; Atlantic Ocean region.
Your satellite tracking list
Your tracking list is empty




NASA's NSSDC Master Catalog

Two Line Element Set (TLE):
1 24742U 97009A   23035.35688046 -.00000197  00000-0  00000-0 0  9995
2 24742  10.1730  41.6676 0012447 338.2537 197.4224  0.98736244 94524
Source of the keplerian elements: AFSPC